Starlink 5998

operational
NORAD ID: 56468 Int'l Des: 2023-064 Owner: SPXS Country: US Constellation: starlink
LEOCIRCULAR

关于 Starlink 5998

正在加载描述...

实时位置

正在加载3D地球...

即将过境

高度历史

Altitude vs Time

uPlot chart will show altitude changes over time

两行轨道根数

1 56468U 23064W 26035.73071225 .00001041 00000-0 94985-4 0 9992
2 56468 69.9989 227.3712 0002293 274.0984 85.9913 14.98333005150316
Epoch: Feb 4, 2026 • Age: 12 hours

当前状态

高度 585.1 km
速度 7.57 km/s
星下点 69.99°N, 97.5°E
发射日期 May 10, 2023
运行时间 2.7 years
类型 internet

技术详情

分类 Payload
质量 305.00 kg
干质量 290.00 kg
总质量 305.00 kg
长度 0.20 m
直径 2.80 m
跨度 9.00 m
形状 Box + pan
制造商 SPXS
平台类型 Starlink
阶段状态 In Orbit
所有者/国家 SPXS/US

大型星座

Loading constellations...